User: anonymous   Login
Location: A�t �Alizem
(31.2076°N, 8.7872°W)
Time: 08:01:29
(UTC+00:00)
Language:

deb Explorer IX - Orbit

View from above orbital plane
View from above orbital plane
View from above satellite
View from above satellite

Ground track
Ground track

The orbit data is extracted from the following two-line orbital elements,

1  3927U 61004F   21166.52591138  .00001052  00000-0  27212-3 0  9997
2  3927  38.9344 247.0785 0475820 311.8125  44.2893 14.01697153867866
Epoch (UTC): 15 June 2021 12:37:18
Eccentricity: 0.0475820
inclination: 38.9344°
perigee height: 542 km
apogee height: 1233 km
right ascension of ascending node: 247.0785°
argument of perigee: 311.8125°
revolutions per day: 14.01697153
mean anomaly at epoch: 44.2893°
orbit number at epoch: 86786

The dashed part of the orbit path shows where the satellite is in the earth's shadow,  

DLR